GFSSGP_prec_cloud_129.txt.gz
Cloud_Cover
5 9 3 20 5 2 0 0 0 0 0 0 0 0 0 0 0 0 0 0 0 0 0 0 0 0 0 0 0 0 0 0 0 0 0 0 0 0 0 0 0 0 0 0 0 0 0 0 0
4 0 1 6 82 75 7 0 0 0 0 0 0 0 0 0 0 0 0 0 0 0 0 0 0 0 0 0 0 0 0 0 0 0 0 0 0 0 0 0 0 0 0 0 0 0 0 2 5
0 2 5 5 100 100 100 70 0 0 0 0 0 0 0 0 0 0 0 0 0 0 0 0 0 0 0 0 0 0 0 0 0 0 0 0 0 0 0 0 0 0 0 0 0 0 0 0 0
0 0 5 76 100 100 100 100 55 5 1 0 3 0 0 0 0 0 0 0 0 0 0 0 0 0 0 0 0 0 0 0 0 0 0 0 0 0 0 0 0 0 5 5 2 14 50 5 4
0 0 3 85 100 100 100 100 100 100 84 98 100 100 100 14 0 0 0 0 0 0 0 0 0 0 0 0 0 0 0 0 0 0 0 0 0 0 0 0 0 0 0 5 5 3 2 21 6
0 0 25 100 100 100 100 100 100 100 100 100 100 99 100 100 52 7 58 15 18 0 0 22 21 5 0 47 92 26 2 0 0 0 0 0 0 0 0 0 0 0 0 3 5 5 4 0 5
0 0 5 94 100 100 100 98 92 100 100 100 100 100 35 88 100 95 56 73 98 0 0 0 2 2 93 43 7 4 4 5 5 5 5 4 0 0 0 0 0 0 0 0 3 0 0 0 0
0 0 73 97 95 100 98 100 94 99 99 100 100 100 100 97 100 100 100 100 48 4 5 2 0 5 14 20 7 1 0 5 0 0 5 5 5 0 0 0 0 0 0 0 0 0 2 4 0
5 20 10 11 30 100 100 100 100 66 90 100 100 100 100 98 22 41 100 100 100 100 84 2 5 0 0 1 5 5 1 3 14 9 7 99 53 19 0 0 0 0 0 0 0 0 100 100 4
1 76 96 100 100 100 100 100 100 100 100 100 100 100 100 99 99 38 7 100 100 100 100 99 7 5 2 0 4 6 0 17 80 44 95 100 100 83 0 0 0 0 0 0 0 5 1 75 43
5 4 6 51 100 100 100 100 100 100 100 100 100 100 100 100 100 100 71 98 100 100 100 100 100 68 5 5 9 8 4 29 93 90 100 100 100 45 9 28 3 25 12 27 20 46 83 23 10
4 5 5 10 59 57 68 98 100 100 100 100 100 100 100 100 100 100 100 54 57 91 99 100 100 100 100 60 7 3 100 100 100 100 14 35 32 16 100 100 63 39 38 24 38 70 21 0 3
13 37 13 28 74 97 68 91 100 100 100 100 100 100 100 100 100 100 100 100 100 100 100 68 77 100 100 100 99 88 21 100 95 41 27 5 4 0 100 76 22 11 17 1 8 13 0 0 0
4 19 55 50 18 66 35 90 76 14 33 51 63 100 100 85 74 33 25 25 92 100 100 100 100 100 73 100 90 7 62 100 75 5 12 0 0 0 76 11 14 3 5 0 1 5 3 0 0
0 1 1 6 22 87 10 6 6 6 6 15 12 31 7 15 75 25 21 5 5 6 26 100 100 100 100 100 100 97 5 23 86 8 73 5 3 5 100 16 0 0 0 2 2 0 5 1 0
5 1 0 4 0 3 3 5 5 3 0 0 0 0 0 0 0 0 0 0 0 0 0 5 19 100 100 100 100 100 67 48 20 100 99 84 7 8 1 5 5 4 5 0 5 5 5 1 93
5 5 0 0 4 0 2 0 0 0 0 0 0 0 0 0 0 0 0 0 0 0 0 0 0 1 4 43 99 100 100 27 36 100 100 100 100 100 97 98 96 49 4 5 5 22 18 63 100
5 5 6 56 0 0 0 0 0 0 0 0 0 0 0 0 0 0 0 0 0 0 0 0 0 0 0 0 0 48 100 100 96 62 100 100 100 100 100 99 77 82 94 48 5 5 16 45 6
21 84 52 100 100 69 4 86 57 0 0 0 0 0 0 0 0 0 0 0 0 0 0 0 5 0 0 0 0 0 0 0 22 100 46 100 100 99 100 100 100 100 100 91 99 100 53 37 6
5 5 32 5 28 77 94 42 0 1 0 0 0 0 0 0 0 1 5 5 0 0 0 4 5 16 0 0 0 0 0 0 0 34 88 92 100 100 74 100 100 100 100 100 99 64 69 28 16
87 50 5 47 100 93 14 46 8 0 0 0 0 0 0 3 5 5 5 5 5 5 5 5 5 56 5 1 0 0 0 0 0 0 81 69 100 100 99 100 100 100 100 81 100 84 100 73 10
5 5 0 3 28 48 100 2 5 4 2 1 5 61 90 23 5 5 5 5 5 5 5 6 31 76 20 11 83 66 65 32 0 0 3 93 78 100 100 86 100 100 100 100 66 100 73 86 6
82 6 33 5 5 15 100 26 5 96 34 5 5 46 97 54 5 6 5 5 5 9 16 35 100 100 100 74 25 100 100 100 16 0 6 100 100 100 100 95 66 100 100 100 100 100 95 71 23
100 100 90 97 5 15 100 85 6 82 8 5 5 5 5 20 90 94 5 7 25 10 54 100 100 100 96 100 53 100 100 86 4 0 1 51 100 100 100 100 100 100 100 100 100 100 100 100 100
100 100 100 69 74 100 100 74 26 5 5 5 6 10 58 100 96 35 49 69 94 58 100 100 100 100 100 100 100 100 100 100 16 3 0 69 100 100 100 100 100 100 100 100 100 100 100 100 100
100 100 100 100 60 100 100 77 42 5 5 55 100 100 84 99 12 52 47 72 89 100 100 100 100 100 100 100 100 100 100 99 35 20 11 75 100 100 100 100 100 100 100 98 100 100 100 100 100
100 98 80 100 100 100 100 70 87 25 5 82 96 86 100 82 74 90 67 52 98 100 100 100 100 100 100 100 100 100 100 100 100 100 83 96 100 100 100 100 100 100 100 100 100 100 100 100 100
100 100 100 100 100 100 100 67 52 59 76 100 100 100 100 99 100 68 58 94 99 100 100 100 100 100 100 100 100 100 100 100 100 100 100 100 100 100 100 100 100 100 100 100 100 100 100 100 100
100 100 100 100 100 100 80 48 100 74 26 70 100 100 98 88 100 78 97 100 84 100 100 100 100 100 100 100 100 100 100 100 100 100 100 100 100 100 100 100 100 100 100 100 100 100 100 100 100
100 100 100 100 100 100 76 95 81 70 72 99 100 100 87 89 99 100 100 98 100 100 100 100 100 100 100 100 100 100 100 100 100 100 100 100 100 100 100 100 100 100 100 100 100 100 100 100 100

GFSSGP_prec_cloud_132.txt.gz
Cloud_Cover
0 44 3 5 1 7 0 0 0 0 0 0 0 0 0 0 0 0 41 53 0 0 0 0 0 0 0 0 0 0 0 0 0 0 0 0 0 0 0 0 0 0 0 0 0 0 4 0 0
0 3 0 0 2 93 5 1 0 2 0 0 0 0 0 0 0 0 0 0 0 0 0 0 0 0 0 0 0 0 0 0 0 0 0 0 0 0 0 0 0 0 0 0 0 0 0 0 0
0 0 0 0 3 100 100 1 0 0 11 100 99 32 4 1 0 0 0 0 0 0 0 0 0 0 0 0 0 0 0 0 0 0 0 0 0 0 0 0 0 0 0 0 5 5 4 0 55
0 0 0 0 40 84 75 9 5 5 4 5 100 100 100 99 75 72 42 88 2 0 0 6 0 0 0 0 0 0 0 0 0 0 0 0 0 0 0 0 0 0 0 0 0 0 5 5 2
0 0 0 0 0 26 63 20 5 7 16 5 24 100 100 100 100 100 100 80 100 48 0 0 0 8 0 0 0 0 0 1 1 0 0 0 0 0 0 0 0 0 0 0 0 0 5 5 5
0 0 0 0 0 0 2 100 100 100 99 100 100 97 54 77 100 100 100 100 100 100 98 13 0 0 0 0 0 0 0 5 5 4 4 4 0 0 0 0 0 0 0 0 0 0 0 4 0
0 0 0 0 5 0 14 68 75 100 100 100 100 29 7 73 100 100 100 100 100 100 100 100 100 66 9 0 0 4 8 5 5 3 2 5 0 0 4 5 2 0 0 0 0 0 0 0 0
0 0 0 0 9 5 100 93 100 100 100 100 100 96 8 17 86 64 99 100 100 100 100 100 99 70 29 5 4 0 11 24 24 17 14 18 9 0 0 5 6 0 0 0 0 0 0 0 2
0 0 0 0 22 73 100 96 5 72 100 100 100 100 100 100 100 90 61 20 100 41 67 100 88 48 8 5 4 3 0 8 31 38 41 99 45 14 1 73 100 6 0 0 0 0 0 0 0
2 0 0 0 0 2 5 45 100 100 100 100 100 100 100 100 90 59 8 82 89 93 54 98 100 100 100 56 5 5 3 6 64 99 91 100 62 38 6 100 100 5 0 0 0 0 0 31 35
5 4 1 5 2 5 4 5 98 100 100 100 100 100 100 100 99 99 100 100 100 100 100 98 45 100 100 100 51 100 91 32 47 75 99 100 73 45 96 100 100 32 13 30 19 24 75 73 38
6 5 5 1 5 5 5 9 18 6 86 100 100 100 100 100 100 100 100 100 100 100 100 73 7 81 100 100 86 98 100 100 89 45 65 100 93 100 89 49 52 67 87 77 67 99 98 32 21
5 5 8 20 5 20 5 4 5 4 1 4 5 5 38 48 97 50 11 5 18 83 100 100 98 20 17 100 99 19 28 99 100 100 100 98 100 86 47 45 62 91 94 60 97 93 48 30 13
5 5 5 16 12 5 5 5 4 5 1 0 2 3 5 6 5 5 5 5 5 4 5 34 100 100 100 70 98 59 15 7 88 100 100 100 100 100 57 52 68 84 69 45 38 35 27 14 8
2 5 5 5 7 5 5 35 5 0 0 0 2 5 5 2 1 0 1 0 0 0 1 5 5 5 3 66 100 100 73 5 42 82 100 100 100 100 66 92 61 52 40 89 55 20 16 12 3
0 0 0 0 4 5 5 5 5 0 0 0 0 0 0 0 0 0 0 0 0 0 0 0 0 0 0 0 0 64 100 100 61 70 95 100 100 100 100 100 90 72 15 100 40 6 5 0 0
5 5 0 4 5 1 4 3 0 0 0 0 5 4 1 0 0 0 0 0 0 0 0 0 0 0 0 0 0 0 0 51 100 100 75 99 100 100 100 89 96 68 100 100 100 62 25 5 6
5 5 2 0 0 0 0 0 1 0 0 0 0 0 0 0 0 0 0 0 0 0 0 0 0 4 4 0 0 0 0 0 0 78 100 100 64 100 100 100 99 100 86 91 84 73 100 71 78
24 5 5 5 0 0 5 5 0 0 0 0 5 5 1 0 0 0 0 0 0 0 0 4 5 5 5 5 5 0 0 0 0 0 32 100 100 82 100 100 100 100 99 76 87 100 100 96 100
62 99 100 100 60 54 72 2 0 0 0 3 1 4 0 2 5 5 5 5 5 5 5 5 5 5 5 5 10 7 9 0 0 0 0 1 99 84 100 100 100 100 100 100 99 89 100 100 100
100 89 100 48 99 97 13 4 5 0 0 5 24 5 5 5 5 5 5 5 5 5 5 5 12 87 96 76 87 89 87 68 2 0 0 0 57 100 74 100 100 100 100 99 100 96 76 63 100
8 58 17 7 11 46 98 26 5 35 6 10 5 5 5 5 5 5 5 5 5 5 5 55 100 100 100 100 100 100 100 100 78 33 2 0 5 74 100 99 100 100 100 100 100 94 97 100 98
48 54 48 5 99 100 100 78 92 94 98 36 5 5 5 5 5 5 5 5 11 8 59 100 100 100 100 100 100 100 100 100 100 100 96 0 0 28 87 99 100 100 100 100 100 100 100 100 100
40 44 5 5 76 2 87 100 31 100 100 63 31 16 5 5 5 5 5 22 90 87 100 100 100 100 100 100 100 100 100 100 100 100 58 0 0 0 96 100 100 100 100 100 100 100 94 100 100
98 82 12 34 96 69 84 100 98 95 95 100 100 6 22 5 13 11 15 80 100 100 100 100 100 98 100 100 100 100 100 100 100 100 100 87 0 0 4 100 100 100 100 100 98 100 100 75 94
100 100 98 100 100 100 100 100 99 100 100 100 99 44 88 6 90 46 22 56 100 100 100 100 100 100 100 100 100 100 100 100 100 100 68 20 12 5 0 71 100 100 100 100 100 100 100 100 97
100 100 100 100 100 98 96 100 100 100 100 100 40 100 69 61 43 66 52 44 100 78 100 100 100 100 100 100 100 100 100 100 100 100 100 100 44 41 81 100 100 100 100 100 100 100 100 100 100
100 100 95 82 67 72 100 100 100 100 100 59 100 100 8 5 7 15 66 66 95 100 100 100 100 100 100 100 100 100 100 100 100 100 100 100 100 100 98 66 100 100 100 100 100 100 100 100 100
98 55 35 95 100 100 100 100 100 100 99 41 100 100 7 6 11 13 50 83 100 83 90 100 100 100 96 100 100 100 100 100 100 100 100 100 100 100 97 70 100 100 100 100 100 100 100 100 100
100 100 100 100 100 100 100 100 100 100 35 97 100 92 5 5 5 5 33 96 100 62 100 61 99 100 100 100 100 100 100 100 100 100 100 100 100 100 100 91 100 100 100 100 100 100 100 100 100

GFSSGP_prec_cloud_135.txt.gz
Cloud_Cover
0 0 0 0 0 0 0 0 0 0 0 0 0 0 0 0 0 0 0 0 0 0 0 0 0 0 0 0 0 0 0 0 0 0 0 0 0 0 0 0 0 0 0 4 0 0 0 0 0
0 0 0 0 0 0 0 0 0 0 0 0 0 3 13 1 0 0 0 0 0 0 0 0 0 0 0 0 0 0 0 0 0 0 0 0 0 0 0 0 0 0 0 0 0 0 0 0 0
5 0 0 0 0 0 0 0 0 0 3 5 4 3 5 99 97 49 1 0 0 0 0 0 0 0 0 0 0 0 0 0 0 0 0 0 0 0 0 0 0 0 0 0 0 0 0 0 0
0 0 0 0 0 0 0 0 0 0 0 5 5 5 27 100 100 37 67 42 19 11 5 5 6 5 4 0 0 0 7 0 0 0 0 0 0 0 0 0 0 0 0 0 0 0 0 0 2
0 0 0 0 0 0 0 0 0 0 2 18 5 0 5 80 100 100 100 97 100 100 100 100 86 47 100 10 0 0 2 0 0 0 0 0 0 0 0 0 0 0 0 0 0 0 0 0 0
0 0 0 0 0 0 0 0 0 5 1 0 3 24 65 70 31 73 80 89 100 100 100 100 100 100 58 45 5 5 0 0 0 0 3 0 0 0 0 0 0 0 0 0 0 0 0 0 0
0 0 0 0 0 0 0 1 5 88 82 93 6 2 0 2 1 10 10 66 90 100 100 100 100 100 100 100 86 30 33 5 0 0 0 5 5 0 0 0 0 0 0 0 0 0 0 0 0
0 0 5 0 0 0 0 0 0 5 8 89 8 0 0 0 1 3 5 47 28 82 100 96 94 100 51 40 81 48 91 92 30 16 12 15 16 1 0 0 0 0 0 5 0 0 0 0 0
4 4 5 4 0 0 0 0 0 2 3 8 98 100 100 81 48 24 59 47 5 5 37 90 84 6 61 34 15 78 95 72 27 30 46 96 77 21 0 1 1 0 5 10 14 0 0 0 0
4 2 5 5 5 2 0 0 0 0 0 0 2 62 100 100 100 100 100 100 78 7 6 18 99 100 84 5 4 5 16 75 87 97 100 100 100 76 32 8 4 5 4 80 8 0 0 4 34
5 5 5 5 41 6 0 4 3 0 0 0 0 0 0 10 81 100 100 100 100 100 96 17 23 43 100 97 44 5 4 32 87 100 100 100 100 100 88 61 42 33 15 98 16 23 44 79 42
5 4 2 4 5 45 28 29 1 1 2 0 0 0 0 0 0 0 4 82 100 100 100 100 100 83 69 100 100 32 5 5 51 85 99 100 100 100 100 100 99 100 86 97 68 56 100 100 31
5 5 1 5 3 5 11 5 6 1 1 5 4 3 0 0 0 0 0 0 0 44 90 100 100 100 100 100 100 100 80 5 3 63 96 100 100 100 100 100 100 100 100 100 100 100 100 86 39
98 73 5 0 5 5 5 9 6 5 5 5 5 5 4 0 0 0 0 0 0 0 0 0 0 1 3 85 100 100 100 98 7 3 54 100 89 100 100 100 100 100 100 100 100 100 100 52 36
100 26 5 2 3 0 2 5 5 4 5 5 5 7 4 3 0 0 3 0 0 0 0 0 0 0 0 0 0 3 87 100 100 68 1 90 100 75 100 100 100 100 100 100 100 100 51 50 36
47 11 5 0 4 2 0 0 0 3 5 4 4 4 0 4 5 5 6 8 0 0 0 0 0 0 0 0 0 0 0 0 14 83 100 66 81 100 97 100 100 100 100 100 100 99 87 44 33
32 52 60 5 0 0 0 0 0 0 0 0 0 0 0 0 3 0 0 0 0 0 0 0 0 0 0 0 0 0 0 0 0 0 0 2 73 78 100 98 100 100 100 100 100 99 87 69 41
91 23 18 61 7 4 0 0 4 0 0 0 0 0 0 4 2 0 0 0 0 0 0 0 5 5 5 5 5 3 0 0 0 0 0 0 0 8 92 99 100 100 100 100 100 99 80 86 84
98 99 85 100 52 4 0 0 5 1 10 5 5 0 5 5 0 0 0 0 0 4 5 5 5 5 5 5 5 18 21 12 0 0 0 0 0 0 17 100 100 100 100 100 100 100 100 100 95
100 81 95 49 6 18 14 7 5 9 36 5 5 5 5 5 2 3 1 5 5 5 5 5 11 30 73 100 100 100 100 100 93 31 13 0 0 0 50 33 100 100 100 100 100 100 95 100 100
100 100 100 100 100 100 93 10 2 2 4 5 5 18 24 5 5 36 37 5 5 5 10 62 77 77 100 100 100 100 100 100 100 100 39 0 0 0 0 2 84 100 100 100 100 100 100 100 100
100 100 100 99 27 5 5 1 5 0 0 5 5 6 36 93 100 100 92 5 5 13 62 100 96 100 100 100 100 100 100 100 100 100 100 63 70 30 0 3 9 100 100 100 100 100 100 100 100
99 59 6 5 5 1 4 5 0 0 3 5 64 100 100 100 99 58 77 5 23 79 100 100 100 97 100 100 100 100 100 100 100 100 100 100 60 0 0 0 13 70 100 100 100 100 100 100 100
6 5 5 5 35 4 16 89 0 5 22 28 100 100 100 84 62 100 18 14 100 100 100 100 100 100 100 100 100 100 100 100 100 100 100 100 100 21 0 0 0 5 100 100 100 100 100 100 100
100 100 26 25 12 5 4 4 0 45 100 100 100 91 73 100 100 38 5 55 92 99 99 98 100 100 100 100 100 100 100 100 100 100 100 100 100 100 14 0 0 13 100 100 100 100 100 100 100
100 100 100 50 5 5 16 8 48 100 100 80 6 56 100 100 98 5 5 46 100 82 100 89 100 100 100 100 100 100 100 100 100 100 100 100 100 86 0 6 0 24 100 100 100 100 100 100 100
5 9 97 100 24 72 95 93 100 100 69 16 100 100 100 97 66 5 5 14 41 80 100 100 100 100 94 100 100 100 100 100 100 100 100 100 100 91 73 100 23 11 100 100 100 100 100 100 100
96 26 82 100 100 87 64 100 100 100 57 100 100 100 100 98 45 5 5 5 5 26 78 100 100 98 88 100 100 100 100 100 100 100 100 100 100 100 100 100 43 59 93 100 100 100 100 100 100
25 62 99 100 98 90 86 100 100 100 100 100 100 100 100 89 20 5 5 5 5 5 25 29 87 74 94 100 100 100 100 100 100 100 100 100 100 100 100 100 81 85 100 100 100 100 100 100 100
6 32 10 100 100 100 90 100 100 100 98 100 100 100 100 98 5 5 5 5 5 5 12 41 31 83 91 100 100 100 100 100 100 100 100 100 100 100 100 100 100 87 97 100 100 100 100 100 100

GFSSGP_prec_cloud_138.txt.gz
Cloud_Cover
6 5 4 0 0 0 0 0 0 0 0 0 0 0 0 5 2 4 3 0 0 0 0 0 0 0 0 0 0 0 0 0 0 0 0 0 0 0 0 0 0 0 0 5 7 0 0 0 0
5 5 2 0 0 0 0 0 0 0 0 0 1 5 37 91 30 71 90 12 0 0 0 0 0 0 0 0 0 0 0 0 0 0 0 0 0 0 0 0 0 0 0 6 0 0 0 0 0
46 35 13 5 1 0 0 0 0 0 0 0 0 1 48 100 100 93 48 26 13 10 4 1 0 0 0 0 0 1 0 0 0 0 0 0 0 0 0 0 0 0 0 0 0 0 0 0 0
33 28 47 5 0 0 0 0 0 0 0 0 0 0 0 5 40 28 54 95 85 100 100 54 5 0 1 0 5 5 5 3 0 0 0 0 0 0 0 0 0 0 0 0 0 0 0 0 0
40 33 1 0 0 0 0 0 0 0 0 0 0 0 0 0 0 1 5 81 97 66 100 100 75 30 7 5 6 5 5 5 0 0 0 0 0 0 0 0 0 0 3 2 0 0 0 0 0
5 2 0 0 0 0 0 0 0 0 0 0 0 0 0 0 4 27 81 32 73 100 84 87 100 100 88 89 25 19 6 23 30 0 0 0 0 0 0 0 0 0 0 2 0 0 0 0 0
0 0 0 0 0 0 0 0 0 0 1 0 0 1 15 5 28 17 63 67 37 14 78 100 71 93 89 31 73 92 28 76 12 13 19 0 0 0 0 0 0 0 0 2 0 0 0 0 0
0 4 0 0 0 0 0 0 0 0 0 0 0 0 0 2 50 100 100 100 100 100 100 97 41 80 100 77 100 12 89 86 14 26 11 17 15 3 1 0 0 0 0 0 0 0 0 0 0
0 2 0 0 0 0 0 2 0 0 0 0 0 0 0 0 0 16 90 100 100 95 100 100 100 100 66 20 5 5 7 29 41 15 48 99 83 100 34 5 1 0 0 0 0 0 5 2 0
5 5 4 5 0 0 0 0 0 0 0 0 0 0 0 0 0 0 0 4 58 93 100 100 100 100 100 95 23 5 5 5 74 78 19 52 11 81 99 70 6 0 0 0 0 0 5 5 32
97 6 13 4 0 4 0 0 0 0 0 0 0 0 0 0 0 0 0 0 0 0 60 100 100 100 100 100 100 98 38 16 5 98 94 93 69 100 98 99 77 57 21 33 16 23 30 39 39
5 5 6 5 6 100 20 1 1 0 0 0 0 0 1 0 0 0 0 0 0 0 0 0 3 71 100 100 100 100 100 49 8 14 97 100 100 70 99 100 100 100 100 98 71 67 48 100 44
2 0 5 5 47 73 67 5 0 0 4 2 1 5 4 2 0 0 0 0 0 0 0 0 0 0 0 10 90 100 100 100 98 33 5 27 100 100 100 96 100 100 100 100 100 100 100 100 97
5 5 4 5 5 5 5 5 0 0 0 2 2 0 0 2 0 0 0 0 0 0 0 0 0 0 0 0 0 0 18 93 100 100 90 5 7 96 100 100 100 100 100 100 100 100 100 100 99
5 5 5 24 98 6 5 5 2 2 1 0 2 5 5 0 0 0 0 0 0 0 0 0 0 0 0 0 0 0 0 0 0 4 16 93 97 26 98 100 100 100 100 100 100 100 100 100 96
50 72 100 99 100 83 9 5 5 5 5 5 5 5 5 5 3 1 5 0 0 0 1 1 3 0 0 0 1 0 0 0 0 0 0 0 1 35 88 100 100 51 100 100 100 100 100 100 100
26 91 100 100 100 63 5 5 5 5 5 5 5 13 35 17 14 31 7 0 4 0 5 5 5 5 5 5 5 5 5 1 0 0 0 0 0 0 0 96 98 100 75 100 100 100 100 100 100
100 100 100 100 100 58 13 5 22 5 5 53 95 99 100 89 80 40 5 4 5 5 5 5 5 5 5 5 5 5 5 5 5 0 1 0 0 0 0 0 82 100 83 100 100 100 100 100 100
100 97 100 100 100 87 45 5 5 8 89 100 100 100 34 5 5 5 1 1 5 5 5 5 5 5 13 50 84 74 100 100 100 36 14 53 3 3 0 0 1 90 36 100 100 100 100 100 100
100 100 100 100 100 66 25 39 98 96 94 49 5 5 5 5 5 5 5 5 5 5 5 12 17 48 79 100 100 100 100 100 100 100 100 100 93 25 54 59 86 98 98 100 100 100 100 100 100
100 100 100 100 100 40 17 5 5 9 5 5 5 5 5 5 5 5 5 5 5 17 53 74 94 100 100 100 100 100 100 100 100 100 100 100 100 72 27 31 27 15 100 100 100 100 100 100 100
100 100 94 61 5 5 5 4 22 5 5 17 78 54 5 5 5 5 5 5 23 55 100 98 100 100 100 100 100 100 100 100 100 100 100 100 100 100 100 100 62 4 85 100 100 100 100 100 100
99 96 81 98 84 5 68 28 2 32 100 100 76 5 5 5 5 5 26 99 100 100 100 100 100 100 100 100 100 100 100 100 100 100 100 100 100 100 100 93 8 0 4 100 100 100 100 100 100
5 6 5 5 7 5 13 88 30 80 47 5 5 5 5 5 35 96 100 100 100 100 98 100 100 100 100 100 100 100 100 100 100 100 100 100 100 100 100 100 62 17 7 9 93 100 100 100 100
10 5 4 2 5 13 72 51 24 31 6 5 12 16 8 98 84 100 100 100 100 23 68 94 100 100 100 100 100 100 100 100 100 100 100 100 100 100 100 100 100 10 0 0 0 100 100 100 100
5 5 56 92 5 17 12 4 0 5 6 96 98 78 46 5 100 100 100 100 100 21 17 36 100 100 100 100 100 100 100 100 100 100 100 100 100 100 100 100 96 0 35 0 41 100 100 100 100
6 5 7 50 5 9 2 0 25 5 100 99 100 7 7 100 100 100 100 100 5 24 5 11 74 100 100 100 100 98 100 100 100 100 100 100 100 100 100 100 100 83 56 37 44 100 100 100 100
99 21 72 91 68 97 5 5 5 100 100 83 26 37 100 100 100 100 100 85 5 5 5 5 11 79 71 85 100 95 100 100 100 100 100 100 100 100 100 100 100 100 100 85 40 100 100 100 100
100 100 52 92 100 87 44 26 100 100 33 30 77 100 93 100 100 100 100 30 5 5 5 5 5 5 5 79 93 97 100 99 100 100 100 100 100 100 100 100 100 100 100 100 90 100 100 100 100
100 100 100 85 21 98 100 28 100 98 99 100 100 100 100 100 100 100 100 7 5 5 5 5 5 5 5 33 96 100 100 100 100 100 100 100 100 100 100 100 100 100 100 100 100 100 100 100 100

GFSSGP_prec_cloud_141.txt.gz
Cloud_Cover
21 100 16 2 0 3 2 1 0 0 0 0 0 0 0 0 0 5 47 29 9 81 76 1 0 0 0 0 0 0 0 0 0 0 0 0 0 0 0 0 0 0 0 1 9 0 0 0 0
100 26 16 31 4 5 2 0 0 0 0 0 0 0 0 0 0 18 74 75 75 55 44 53 4 1 0 0 0 0 0 0 0 0 0 0 0 0 0 0 0 0 0 0 7 0 0 0 0
4 5 16 100 76 49 7 4 0 0 0 0 0 0 0 0 0 0 38 60 17 28 100 100 97 71 27 0 3 15 0 0 0 0 0 0 0 0 0 0 0 0 0 0 0 0 0 0 0
34 70 100 100 18 5 0 0 0 0 0 0 0 0 0 0 0 0 3 5 5 5 59 100 100 100 80 79 89 31 3 1 0 2 16 2 4 0 0 0 0 0 0 0 0 0 0 0 0
97 91 75 84 8 3 0 0 0 0 0 0 0 0 0 0 4 5 10 12 13 14 15 23 92 31 64 100 100 85 66 80 65 5 56 84 90 5 3 2 1 0 0 0 0 5 0 0 0
39 5 36 5 5 0 0 0 0 0 0 0 0 0 0 0 0 5 24 64 96 88 94 50 21 60 26 52 55 96 55 9 47 69 8 100 100 58 5 5 5 10 0 0 0 4 4 0 0
6 5 6 5 0 0 0 0 0 0 0 0 0 0 0 0 0 25 17 3 5 5 5 3 5 6 27 29 62 59 10 86 27 17 16 19 85 100 85 5 5 5 62 1 0 0 1 0 0
48 5 5 3 3 0 0 0 0 0 0 0 4 0 0 0 0 0 0 0 0 0 1 5 5 6 7 6 5 5 3 4 31 13 5 17 39 17 100 100 63 6 44 55 3 3 0 0 0
9 5 3 2 5 0 0 0 0 0 0 5 5 0 0 0 0 0 0 0 0 0 0 0 1 10 58 97 99 74 12 5 3 21 64 61 10 7 5 100 100 100 68 35 41 5 19 1 6
5 5 17 5 0 0 0 0 0 0 0 5 6 4 0 1 1 0 0 0 0 0 0 0 0 0 13 85 54 95 97 66 6 5 4 91 50 74 62 31 59 100 100 97 100 55 67 46 9
18 39 12 5 5 5 5 0 0 0 0 0 1 5 5 5 5 0 4 0 0 0 0 1 0 0 0 0 4 81 87 8 30 80 9 4 84 97 88 38 81 97 100 100 98 100 100 36 31
98 22 5 39 6 5 5 1 0 0 1 0 0 0 4 5 0 0 0 1 1 0 0 0 0 0 0 0 0 0 2 93 76 5 8 56 5 26 96 92 44 52 94 99 100 86 89 92 74
86 30 21 6 5 5 5 5 3 5 2 5 5 5 1 0 0 0 0 0 0 0 0 0 0 0 0 0 0 0 0 0 2 4 5 5 38 6 28 74 94 24 86 100 100 100 100 65 90
100 96 5 8 35 5 5 6 49 22 5 5 52 74 5 2 4 2 0 1 0 0 0 0 0 0 0 0 0 0 0 0 0 0 0 0 4 28 17 8 98 99 33 81 100 100 100 100 100
86 100 5 67 98 50 99 86 72 17 5 5 87 37 8 5 5 34 13 5 5 3 1 0 0 0 0 0 0 0 0 0 0 0 0 0 0 0 4 16 3 23 69 53 96 100 100 100 100
99 100 100 97 46 80 96 87 27 11 63 98 31 57 88 99 50 24 12 15 5 5 9 5 5 3 0 0 0 4 0 0 0 0 0 0 0 0 0 0 4 26 51 100 99 100 100 100 100
100 90 96 100 100 33 10 84 98 89 100 100 100 100 100 100 100 100 100 100 100 56 7 12 5 3 5 4 3 13 8 4 0 0 0 2 4 0 2 0 0 0 93 100 100 100 100 100 100
56 69 84 100 85 5 90 100 100 100 100 100 100 100 100 100 100 100 100 100 81 20 4 5 5 5 5 5 5 2 1 0 0 0 1 19 42 40 36 13 0 0 9 100 100 98 100 100 100
99 56 60 100 100 100 100 100 100 100 100 100 81 11 38 86 83 30 17 5 5 5 5 5 5 5 5 6 16 16 23 17 8 15 34 34 90 100 100 100 59 3 0 17 76 100 69 100 100
61 26 82 75 100 100 100 100 100 100 97 79 74 5 29 17 5 3 8 5 5 5 5 5 5 11 40 90 100 100 100 100 98 100 99 79 89 100 100 100 88 97 53 38 76 57 100 100 100
6 43 5 34 59 100 100 100 100 99 56 5 8 70 99 63 12 5 5 5 5 5 5 5 23 41 79 100 100 100 100 100 100 100 100 100 99 99 100 100 100 82 100 70 30 68 98 100 100
5 5 5 5 21 59 65 15 46 58 28 83 67 82 99 60 41 38 39 5 5 5 7 35 35 48 87 99 100 100 100 100 100 100 100 100 100 100 100 100 100 100 100 95 64 75 38 100 100
10 5 5 5 39 61 96 5 97 34 85 5 5 5 5 5 5 5 5 5 8 36 100 100 87 100 69 100 100 100 100 100 100 100 100 100 100 100 100 100 100 100 100 5 24 92 100 100 100
14 5 5 5 5 71 80 5 68 5 3 1 5 5 5 5 5 5 5 5 60 69 83 100 98 52 63 100 100 100 100 100 100 100 100 100 100 100 100 100 100 100 100 15 1 52 100 100 100
79 64 30 5 5 5 10 37 74 13 7 4 5 5 5 5 5 5 16 6 5 58 100 100 98 47 63 100 100 100 100 100 100 100 100 100 100 100 100 100 100 100 100 34 74 75 100 100 100
98 95 99 78 69 99 96 5 69 19 6 5 5 5 5 37 13 95 28 5 100 100 100 100 20 46 51 94 97 100 100 100 100 100 100 100 100 100 100 100 100 100 100 100 80 59 41 100 100
100 100 83 100 71 5 5 91 100 100 71 24 14 5 5 5 40 5 70 100 100 100 100 16 15 36 30 84 92 96 100 100 100 100 100 100 100 100 100 100 100 100 100 97 85 100 24 100 100
100 100 60 25 34 66 35 96 100 100 95 34 16 10 89 48 54 100 100 100 100 100 67 5 5 5 7 54 100 96 100 100 100 100 100 95 100 100 100 100 100 100 100 100 100 100 92 100 100
100 81 35 28 19 79 72 28 77 94 33 47 5 5 31 68 100 100 100 100 100 100 9 5 5 5 5 23 98 97 77 96 100 100 100 100 100 100 100 100 100 100 100 100 100 100 73 100 100
100 100 100 100 69 97 84 37 82 95 10 94 70 99 22 82 100 100 100 100 100 76 5 5 5 5 5 5 71 100 89 57 100 100 100 100 100 100 100 100 100 100 100 100 100 100 100 100 100

GFSSGP_prec_cloud_144.txt.gz
Cloud_Cover
1 4 7 6 72 16 50 29 0 0 0 0 0 0 0 0 0 6 97 56 99 100 94 55 42 39 20 5 1 0 0 0 0 0 0 0 0 0 0 0 0 0 0 0 0 0 0 0 0
4 57 89 92 80 8 49 5 5 5 2 0 0 0 0 0 0 41 88 99 78 58 98 100 89 46 38 35 19 2 9 2 0 0 0 0 0 0 0 0 0 0 0 0 9 0 0 0 0
2 68 25 57 25 34 44 89 99 18 3 0 0 0 0 0 0 2 2 95 72 3 42 72 93 97 34 6 42 40 55 5 15 6 0 0 0 0 1 13 8 5 5 4 8 4 0 0 0
5 6 100 100 97 93 100 63 5 5 2 0 0 0 0 0 0 0 0 0 0 0 0 0 3 2 6 53 6 26 98 98 100 100 25 2 0 1 2 1 3 5 5 2 5 0 0 0 0
15 45 42 99 70 34 23 6 30 13 0 0 0 0 0 0 0 0 0 0 0 0 0 1 0 0 4 4 32 19 17 98 62 72 61 64 5 14 29 62 3 20 5 5 0 0 0 0 0
94 92 98 100 99 48 22 5 4 2 0 0 0 0 0 0 0 0 0 0 0 4 3 5 5 5 5 5 5 1 0 42 30 54 24 5 5 12 100 100 98 15 5 5 1 2 3 0 0
100 86 100 89 36 5 5 5 5 5 0 0 0 0 0 0 0 2 0 0 0 0 0 0 0 0 0 0 0 0 2 0 4 62 78 30 5 9 33 100 100 100 10 34 5 4 5 3 0
100 100 100 100 27 5 5 5 0 0 0 0 0 0 0 0 0 0 0 0 0 0 0 0 0 0 0 0 0 0 0 0 0 0 45 33 44 7 19 22 71 100 100 100 100 40 6 5 5
48 100 100 98 7 7 8 5 0 4 4 0 0 0 0 0 0 0 0 4 0 0 0 0 0 0 0 0 0 0 0 0 0 0 0 6 64 31 43 17 16 71 100 100 100 100 78 22 8
84 95 100 96 5 5 5 0 0 5 1 5 0 0 0 0 0 0 5 5 0 0 0 0 1 0 0 0 0 0 0 0 0 0 3 0 0 44 90 81 34 52 100 100 100 100 100 100 51
100 100 100 100 100 5 5 5 5 5 5 5 5 1 5 5 5 2 3 5 5 0 0 0 0 0 4 2 0 0 0 0 0 0 0 0 4 2 18 99 88 95 66 100 98 100 100 100 100
99 100 100 100 98 28 50 42 5 5 5 5 0 6 6 69 11 22 3 5 0 0 0 0 0 0 1 0 0 0 0 0 0 0 0 0 0 5 3 2 43 96 100 100 100 98 100 100 100
100 100 38 56 100 92 36 5 5 10 5 4 5 85 27 10 5 27 13 4 0 0 2 0 1 0 0 0 4 4 0 0 0 0 0 0 0 0 3 4 0 22 54 55 100 99 100 100 100
94 78 61 48 80 82 20 5 39 99 5 5 5 100 82 98 54 77 98 15 2 0 3 5 2 0 0 0 0 0 0 0 0 0 0 0 0 0 0 0 5 0 5 100 77 98 84 100 100
100 78 87 98 67 31 82 41 75 7 43 86 94 7 42 98 100 98 66 58 8 59 5 5 5 7 23 72 63 5 0 0 0 0 0 0 0 0 0 0 0 2 2 0 53 89 80 60 83
100 91 100 100 53 77 100 23 100 97 53 39 75 100 100 100 100 100 100 91 29 5 50 87 100 100 93 48 5 1 0 0 0 0 0 0 0 1 0 0 0 0 0 2 47 4 86 66 100
100 100 100 37 14 13 46 30 28 33 21 94 100 100 100 100 100 100 98 18 12 5 4 20 44 27 33 5 2 0 0 0 0 0 0 0 0 12 11 0 0 0 0 0 11 98 21 48 100
43 91 100 100 24 19 73 16 5 5 82 100 100 100 100 100 100 78 13 5 4 2 4 4 5 3 2 5 4 0 0 0 0 0 0 1 36 68 62 23 7 20 0 0 0 47 94 35 98
100 100 92 16 37 53 14 7 9 65 80 83 82 9 99 23 5 5 1 0 0 5 5 4 5 5 5 2 3 0 0 0 1 15 62 83 62 80 100 100 86 52 28 0 0 0 57 51 58
84 86 44 99 98 46 45 32 18 5 5 5 5 5 5 5 2 0 0 0 0 2 2 0 1 0 4 4 1 9 29 27 46 56 72 86 100 100 100 100 100 100 94 73 53 2 9 2 92
76 65 48 14 59 92 97 14 5 5 5 5 5 3 4 0 0 0 0 0 0 1 5 5 5 5 2 40 6 13 24 39 55 50 61 97 100 100 100 100 100 100 100 84 100 100 62 80 7
58 28 17 17 24 51 50 8 5 5 5 6 5 5 7 13 6 5 2 5 0 1 5 5 5 5 12 58 45 81 98 99 97 99 99 99 99 100 100 100 100 100 100 100 48 94 58 99 24
99 86 96 99 82 6 5 5 97 12 100 19 21 80 98 92 9 5 5 0 0 0 0 5 27 38 30 97 72 82 100 100 100 100 100 100 100 100 100 100 100 100 100 100 100 27 100 97 44
75 60 77 84 100 62 5 70 95 100 100 100 100 92 14 5 5 5 3 0 0 1 5 24 5 40 93 52 70 100 100 100 100 100 100 100 100 100 100 100 100 100 100 100 100 100 17 93 79
78 88 100 72 73 85 5 5 96 84 100 77 37 11 59 96 100 11 5 5 5 6 5 5 96 100 89 67 92 100 100 100 100 100 100 100 100 100 100 100 100 100 100 100 100 100 64 70 42
98 100 100 79 9 5 5 4 5 7 5 5 5 5 89 86 18 5 5 5 5 7 38 100 100 100 50 56 91 100 100 100 100 100 100 100 100 100 100 100 100 100 100 100 100 100 96 89 44
100 100 66 9 5 4 5 5 5 15 5 5 5 5 6 5 6 5 5 5 5 75 100 100 100 82 5 43 98 100 100 100 100 100 100 100 100 100 100 100 100 100 100 100 100 100 100 100 82
100 96 5 54 52 14 3 7 5 55 4 5 97 21 13 61 42 5 16 17 100 100 100 100 100 5 5 10 84 99 100 100 100 100 100 100 99 100 100 100 100 100 100 100 100 100 100 100 100
82 9 5 32 5 60 18 5 16 72 100 100 100 100 100 21 14 5 16 100 100 100 100 100 93 5 5 5 35 100 100 100 100 100 100 100 100 100 100 100 100 100 100 100 100 100 100 100 100
100 98 95 98 77 100 62 35 4 5 4 4 98 100 74 66 10 7 99 100 100 100 100 100 99 5 6 5 9 24 99 100 100 100 100 100 99 100 100 100 100 100 100 100 100 100 100 100 100